Tracking 19638 objects as of 21-Apr-2019
HD Live streaming from Space Station
objects crossing your sky now

THORAD AGENA D DEB

Track THORAD AGENA D DEB now!
10-day predictions


NORAD ID: 4738
Int'l Code: 1970-025CM
Perigee: 844.1 km
Apogee: 923.9 km
Inclination: 100.1 °
Period: 102.5 minutes
Semi major axis: 7254 km
RCS: 0.0155 m2 (small)
Launch date: April 8, 1970
Source: United States (US)
Launch site: AIR FORCE WESTERN TEST RANGE (AFWTR)

Note: This is SATELLITE DEBRIS
aabbcc
Your satellite tracking list
Your tracking list is empty




NASA's NSSDC Master Catalog

Two Line Element Set (TLE):
1  4738U 70025CM  19111.72864646  .00000191  00000-0  15027-3 0  9991
2  4738 100.1118 129.3359 0054995 141.7286 218.7800 14.04913855472783
Source of the keplerian elements: AFSPC